Location: Glencliff
(36.1226°N, 86.7183°W)
Time: 12:34:28
(UTC+00:00)

NOSS 3-1 (C) - Pass Details

Date: 25 August 2019
Orbit: 771 x 1438 km, 63.4° (Epoch: 17 October)

Event Time Altitude Azimuth Distance (km) Brightness Sun altitude
Rises 03:57:10 0° 326° (NW) 4,078 7.7 -36.1°
Reaches altitude 10° 03:59:47 10° 324° (NW) 3,197 6.9 -36.4°
Enters shadow 04:06:43 68° 286° (WNW) 1,434 4.3 -37.2°
